SUPERBIRD-B3 (43271 NORAD) Tracking and Keplerian Element Data

This shows tracking and keplerian element data for the satellite.

Feedback or suggestion? Click here.




ElementValue
Catalog43271
NameSUPERBIRD-B3
Epoch Orbit2506
Epoch Day34.71571964
Epoch Year2025
RAAN97.3653
Inclination0.0161
Eccentricity0.0001151
Argument of Perigee211.9285
Mean Anonmoly244.4631
Mean Motion1.00270899
Decay Rate-8.8E-07
L11 43271U 18033A 25034.71571964 -.00000088 00000+0 00000+0 0 9991
L22 43271 0.0161 97.3653 0001151 211.9285 244.4631 1.00270899 25069



Live tracking and technical data element details for SUPERBIRD-B3 (NORAD 43271). SUPERBIRD-B3 can be tracked NOW for your location showing map with azimuth and elevation plus other details from your city location.







IsCatalogInMostPopularTable: catalog: 43271, numindb: 2580
Update: records affected: 1



GetName: 43271 SUPERBIRD-B3

Hit Count: updated at: Fri, 14 Feb 2025 14:57:08 GMT